STARLINK-32431, 61256

Orbit data source: Space-Track

STARLINK-32431, 61256 is a payload satellite owned by SpaceX/Seattle (US) in LEO that was launched on Wed, 25 Sep 2024 UTC via an FALCON 9 launch vehicle from the Air Force Western Test Range (AFWTR). Payload-class satellites include a variety of spacecraft equipped with specific instruments for various scientific and technological missions. These include communications satellites like Starlink; space stations such as the ISS; scientific satellites like the Hubble; Earth observation satellites from companies like Planet Labs, Umbra, and HawkEye 360; GPS; miniature CubeSats for education and research; and military/defense satellites.

Loading next visibility...
Identifier
61256, 2024-175P
Orbit
LEO
Country
Flag of USUS
Related business
Manufacturer
SpaceX/Seattle
Mission
Operational Commercial Communications
Bus & Motor
STARLINK V2M, Unknown motor
Mass
730 kg wet, ~700 kg dry
Launch date (UTC)
2024-09-25 (1 year ago)
Launch vehicle
FALCON 9
Launch site
Air Force Western Test Range (AFWTR)
Object type
Payload
Rocket body
Debris
Shape & HBR
Box + 2 Pan, 17.7 m
Radar Cross Section
33.884 m², Large (>1 m²)

Expand to show TLE details & history
Last TLE update: 2 days ago

TLE from 2 days ago
0 STARLINK-32431
1 61256U 24175P   25300.83984455  .00002281  00000-0  89144-4 0  9998
2 61256  53.1588  91.1163 0001141  86.9087 273.2045 15.30191894 61111
Epoch: 2025-10-27T20:09Z
TLE epoch observation values (Epoch: 2025-10-27T20:09:22.569Z)
Latitude
0.00005°
Longitude
112.33638°
Altitude
476.095 km
Speed
7.629 km/s
True Right ascension
06h 04m 27s
True Declination
0° 00' 00"
Sunlit
Object was in full shadow at epoch
Visualization orbit readout
Latitude
Unknown
Longitude
Unknown
Altitude
Unknown
Speed
Unknown
Apparent Right ascension
Unknown
Apparent Declination
Unknown
Sunlit
N/A
Visualization observer readout
Local Sidereal Time
11:33:46
Azimuth
Unknown
Elevation
Unknown
Doppler factor
Unknown
Orbital elements
Apogee altitude
476.278 km
Perigee altitude
474.714 km
Semi-major axis
6,853.633 km
Eccentricity
0.00011
Inclination
53.1588°
RAAN
91.1163°
Arg. of periapsis
86.9087°
True anomaly
273.19145°
Mean anomaly
273.2045°
Eccentric anomaly
273.19797°
Mean motion
3.82527 °/min
Orbital period
94.11 mins
BSTAR
0.000089144
Loading maneuver chart data...
Computing Atmospheric mass density...
Loading historical data...
Loading historical data...
Loading historical data...
Loading historical data...
Loading historical data...
Loading historical data...
Loading historical data...

Documentation

Showing up to 5 results
|